Rome Fiumicino, Italy

1:13 AM CEST on August 28, 2016 (GMT +0200)
Fiumicino

Weather History for LIRF - October, 2012

Change the Weather History Date:

Sunday, October 7, 2012

  Actual Average Record
Temperature  
Mean Temperature 66 °F -  
Max Temperature 75 °F 70 °F 78 °F (2001)
Min Temperature 57 °F 52 °F 51 °F (1999)
Cooling Degree Days 1    
Growing Degree Days 16 (Base 50)    
Moisture  
Dew Point 62 °F    
Average Humidity 83    
Maximum Humidity 94    
Minimum Humidity 69    
Precipitation  
Precipitation 0.00 in 0.13 in - ()
Sea Level Pressure  
Sea Level Pressure 30.04 in    
Wind  
Wind Speed 6 mph ()    
Max Wind Speed 14 mph    
Max Gust Speed -    
Visibility 5.8 miles    
Events      
Averages and records for this station are not official NWS values.
T = Trace of Precipitation, MM = Missing Value Source: Averaged Metar Reports

Daily Weather History Graph

Daily Weather History Graph

Search for Another Location

Airport or City:

Trip Planner

Search our weather history database for the weather conditions in past years. The results will help you decide how hot, cold, wet, or windy it might be!

Date:

Astronomy

Oct. 07, 2012 Rise Set
Actual Time 7:14 AM CEST 6:42 PM CEST
Civil Twilight 6:46 AM CEST 7:10 PM CEST
Nautical Twilight 6:14 AM CEST 7:42 PM CEST
Astronomical Twilight 5:42 AM CEST 8:14 PM CEST
Moon 11:34 PM CEST (10/7) 1:43 PM CEST (10/7)
Length of Visible Light 12h 23m
Length of Day
11h 27m
Waning Gibbous, 58% of the Moon is Illuminated
Oct 7
Waning Gibbous
Oct 8
Last Quarter
Oct 15
New
Oct 22
First Quarter
Oct 29
Full

Hourly Weather History & Observations

Time (CEST) Temp. Dew Point Humidity Pressure Visibility Wind Dir Wind Speed Gust Speed Precip Events Conditions
12:20 AM 60.8 °F 59.0 °F 94% 30.12 in 5.0 mi East 4.6 mph - N/A   Partly Cloudy
12:50 AM 60.8 °F 59.0 °F 94% 30.12 in 5.0 mi East 4.6 mph - N/A   Partly Cloudy
1:20 AM 59.0 °F 57.2 °F 94% 30.12 in 4.3 mi East 4.6 mph - N/A   Unknown
1:50 AM 59.0 °F 57.2 °F 94% 30.12 in 3.7 mi East 6.9 mph - N/A   Unknown
2:20 AM 59.0 °F 57.2 °F 94% 30.12 in 4.3 mi East 5.8 mph - N/A   Unknown
2:50 AM 59.0 °F 57.2 °F 94% 30.09 in 4.3 mi East 3.5 mph - N/A   Unknown
3:20 AM 59.0 °F 57.2 °F 94% 30.09 in 4.3 mi East 2.3 mph - N/A   Partly Cloudy
3:50 AM 57.2 °F 55.4 °F 94% 30.09 in 5.0 mi East 3.5 mph - N/A   Partly Cloudy
4:20 AM 59.0 °F 57.2 °F 94% 30.12 in 5.0 mi East 4.6 mph - N/A   Partly Cloudy
4:50 AM 59.0 °F 57.2 °F 94% 30.09 in 5.0 mi East 4.6 mph - N/A   Partly Cloudy
5:20 AM 59.0 °F 57.2 °F 94% 30.09 in 5.0 mi East 5.8 mph - N/A   Partly Cloudy
5:50 AM 59.0 °F 55.4 °F 88% 30.09 in 6.2 mi East 5.8 mph - N/A   Partly Cloudy
6:20 AM 59.0 °F 55.4 °F 88% 30.09 in - East 5.8 mph - N/A   Clear
6:50 AM 59.0 °F 55.4 °F 88% 30.06 in 6.2 mi East 6.9 mph - N/A   Partly Cloudy
7:20 AM 59.0 °F 55.4 °F 88% 30.09 in 5.6 mi East 4.6 mph - N/A   Partly Cloudy
7:50 AM 59.0 °F 57.2 °F 94% 30.06 in 5.6 mi East 4.6 mph - N/A   Unknown
8:20 AM 60.8 °F 57.2 °F 88% 30.09 in - ENE 4.6 mph - N/A   Clear
8:50 AM 62.6 °F 57.2 °F 82% 30.09 in 6.2 mi ENE 8.1 mph - N/A   Scattered Clouds
9:20 AM 64.4 °F 57.2 °F 77% 30.06 in 6.2 mi East 6.9 mph - N/A   Scattered Clouds
9:50 AM 66.2 °F 57.2 °F 73% 30.09 in 6.2 mi East 6.9 mph - N/A   Mostly Cloudy
10:20 AM 68.0 °F 59.0 °F 73% 30.06 in 6.2 mi East 6.9 mph - N/A   Mostly Cloudy
10:50 AM 69.8 °F 60.8 °F 73% 30.04 in - ESE 9.2 mph - N/A   Clear
11:20 AM 71.6 °F 64.4 °F 78% 30.06 in 6.2 mi South 5.8 mph - N/A   Scattered Clouds
11:50 AM 71.6 °F 64.4 °F 78% 30.06 in 6.2 mi SSE 9.2 mph - N/A   Scattered Clouds
12:20 PM 71.6 °F 64.4 °F 78% 30.06 in 6.2 mi SSE 10.4 mph - N/A   Mostly Cloudy
12:50 PM 71.6 °F 64.4 °F 78% 30.06 in 6.2 mi SSE 10.4 mph - N/A   Mostly Cloudy
1:20 PM 73.4 °F 64.4 °F 73% 30.04 in 6.2 mi SSE 10.4 mph - N/A   Mostly Cloudy
1:50 PM 73.4 °F 66.2 °F 78% 30.04 in 6.2 mi SSE 10.4 mph - N/A   Mostly Cloudy
2:20 PM 73.4 °F 64.4 °F 73% 30.01 in 6.2 mi SSE 13.8 mph - N/A   Scattered Clouds
2:50 PM 75.2 °F 64.4 °F 69% 30.01 in 6.2 mi SSE 12.7 mph - N/A   Scattered Clouds
3:20 PM 75.2 °F 64.4 °F 69% 30.01 in 6.2 mi SSE 12.7 mph - N/A   Scattered Clouds
3:50 PM 73.4 °F 66.2 °F 78% 30.01 in 6.2 mi SSE 11.5 mph - N/A   Scattered Clouds
4:20 PM 73.4 °F 66.2 °F 78% 29.98 in 6.2 mi SSE 11.5 mph - N/A   Scattered Clouds
4:50 PM 71.6 °F 66.2 °F 83% 29.98 in 6.2 mi SSE 11.5 mph - N/A   Mostly Cloudy
5:20 PM 71.6 °F 66.2 °F 83% 29.98 in 6.2 mi SSE 10.4 mph - N/A   Mostly Cloudy
5:50 PM 73.4 °F 64.4 °F 73% 29.98 in 6.2 mi SSW 6.9 mph - N/A   Scattered Clouds
6:20 PM 73.4 °F 64.4 °F 73% 29.98 in 6.2 mi SSW 6.9 mph - N/A   Scattered Clouds
6:50 PM 71.6 °F 64.4 °F 78% 29.98 in 6.2 mi South 4.6 mph - N/A   Scattered Clouds
7:20 PM 71.6 °F 66.2 °F 83% 29.98 in 6.2 mi SSE 4.6 mph - N/A   Partly Cloudy
7:50 PM 71.6 °F 66.2 °F 83% 29.98 in 6.2 mi SSE 4.6 mph - N/A   Partly Cloudy
8:20 PM 71.6 °F 66.2 °F 83% 29.98 in 6.2 mi Variable 3.5 mph - N/A   Partly Cloudy
8:50 PM 71.6 °F 66.2 °F 83% 29.98 in 6.2 mi SE 5.8 mph - N/A   Partly Cloudy
9:20 PM 69.8 °F 66.2 °F 88% 29.98 in 6.2 mi SSE 4.6 mph - N/A   Scattered Clouds
9:50 PM 71.6 °F 66.2 °F 83% 29.98 in 6.2 mi SSW 5.8 mph - N/A   Scattered Clouds
10:20 PM 71.6 °F 66.2 °F 83% 29.98 in 6.2 mi WSW 12.7 mph - N/A   Scattered Clouds
10:50 PM 69.8 °F 64.4 °F 83% 29.98 in 6.2 mi West 9.2 mph - N/A   Scattered Clouds
11:20 PM 69.8 °F 64.4 °F 83% 29.98 in 6.2 mi West 8.1 mph - N/A   Partly Cloudy
11:50 PM 69.8 °F 64.4 °F 83% 29.98 in 6.2 mi West 6.9 mph - N/A   Scattered Clouds